Track IRIDIUM 125 now! 10-day predictions IRIDIUM 125 is classified as:
1 42964U 17061K 25181.89294936 -.00000003 00000-0 -80770-5 0 9999 2 42964 86.4003 172.1817 0002766 81.5704 278.5805 14.34217442404501